Location: Gazon
(48.1318°N, 1.2708°W)
Time: 02:14:57
(UTC+00:00)

Cosmos 1048 Rocket - Pass Details

Date: 18 September 2020
Orbit: 742 x 792 km, 74.0° (Epoch: 29 October)

Event Time Altitude Azimuth Distance (km) Brightness Sun altitude
Rises 19:23:11 0° 340° (NNW) 3,254 7.8 -12.8°
Reaches altitude 10° 19:25:39 10° 346° (NNW) 2,331 6.9 -13.2°
Maximum altitude 19:30:46 48° 61° (ENE) 1,020 4.4 -14.0°
Enters shadow 19:34:13 20° 127° (SE) 1,741 5.3 -14.5°
